DW3733 Luzzi (cosenza) IT current weather conditions

sailwx.info

Wind from 090 at 0 knots gusting 4

Air temperature 11.7° C
Dewpoint 10.4° C

Last reported at 2016-Feb-14 22:43 UTC.
Time now 2016-Feb-14 23:09 UTC

Location: N 39°27' E 016°16'.
View on Google Maps.

See reports from other nearby stations

  
Tides and Currents Weather Stations Pressure Air Temp Water Temp Dewpoint Dewpoint Depression Visibility Wind Speed Wind Dir Waves Ship Positions
date/time (UTC)wind fromknots sea level pressurealtimeterstation pressurevisibilityair tempwater tempwave heightnotes
2016-Feb-14 22:43 090 0 gusting 4 11.7
2016-Feb-14 22:33 060 12.2
2016-Feb-14 22:23 135 12.2
2016-Feb-14 22:13 057 0 gusting 1 12.8
2016-Feb-14 22:03 090 13.3
2016-Feb-14 21:53 135 0 gusting 2 13.3
2016-Feb-14 21:43 129 1 gusting 2 13.3
2016-Feb-14 21:33 174 0 gusting 5 13.9
2016-Feb-14 21:23 135 2 gusting 5 13.9
2016-Feb-14 21:13 151 0 gusting 1 13.9
2016-Feb-14 21:03 180 0 gusting 2 14.4
2016-Feb-14 20:53 155 1 gusting 4 14.4
2016-Feb-14 20:43 221 0 gusting 2 13.9
2016-Feb-14 20:33 104 1 gusting 2 13.9
2016-Feb-14 20:23 158 0 gusting 4 13.9
2016-Feb-14 20:13 144 14.4
2016-Feb-14 20:03 048 0 gusting 1 14.4
2016-Feb-14 19:53 225 1 gusting 2 14.4
2016-Feb-14 19:43 184 1 gusting 2 14.4
2016-Feb-14 19:33 135 0 gusting 2 15.0
2016-Feb-14 19:23 254 1 gusting 5 15.0
2016-Feb-14 19:13 149 1 gusting 5 15.6
2016-Feb-14 19:03 315 2 gusting 6 16.1
2016-Feb-14 18:53 249 3 gusting 6 16.1
2016-Feb-14 18:43 201 1 gusting 5 16.1
2016-Feb-14 18:33 224 0 gusting 8 16.7
2016-Feb-14 18:23 225 2 gusting 8 16.1
2016-Feb-14 18:13 214 0 gusting 6 15.6
2016-Feb-14 18:03 225 2 gusting 8 16.1
2016-Feb-14 17:53 180 5 gusting 8 15.6
2016-Feb-14 17:43 225 2 gusting 7 15.6
2016-Feb-14 17:33 135 5 gusting 10 15.6
2016-Feb-14 17:23 166 4 gusting 8 15.6
2016-Feb-14 17:13 242 1 gusting 8 15.6
2016-Feb-14 17:03 180 0 gusting 6 15.6
2016-Feb-14 16:53 153 3 gusting 6 15.6
2016-Feb-14 16:43 315 2 gusting 8 16.1
2016-Feb-14 16:33 225 4 gusting 8 16.1
2016-Feb-14 16:23 225 5 gusting 11 16.1
2016-Feb-14 16:13 135 5 gusting 10 16.1
2016-Feb-14 16:03 128 5 gusting 8 16.1
2016-Feb-14 15:53 173 4 gusting 6 16.1
2016-Feb-14 15:43 189 2 gusting 6 16.1
2016-Feb-14 15:33 209 3 gusting 10 16.1
2016-Feb-14 15:23 244 4 gusting 8 16.7
2016-Feb-14 15:13 186 2 gusting 6 16.7
2016-Feb-14 15:03 090 1 gusting 6 16.7
2016-Feb-14 14:53 218 3 gusting 10 16.7
2016-Feb-14 14:43 209 6 gusting 11 17.2
2016-Feb-14 14:33 212 5 gusting 11 17.2
2016-Feb-14 14:23 248 5 gusting 10 17.2
2016-Feb-14 14:13 006 2 gusting 11 16.7
2016-Feb-14 14:03 196 6 gusting 13 16.7
2016-Feb-14 13:53 267 5 gusting 10 16.7
2016-Feb-14 13:43 180 2 gusting 8 16.7
2016-Feb-14 13:33 313 2 gusting 8 16.7
2016-Feb-14 13:23 198 4 gusting 7 16.7
2016-Feb-14 13:13 225 5 gusting 10 16.7
2016-Feb-14 13:03 264 4 gusting 10 16.7
2016-Feb-14 12:53 232 5 gusting 13 16.1
2016-Feb-14 12:43 243 5 gusting 11 16.7
2016-Feb-14 12:33 347 4 gusting 8 16.7
2016-Feb-14 12:13 186 4 gusting 8 16.7
2016-Feb-14 12:03 296 3 gusting 8 16.7
2016-Feb-14 11:53 292 2 gusting 11 16.7
2016-Feb-14 11:43 141 6 gusting 13 16.7
2016-Feb-14 11:33 229 5 gusting 11 16.7
2016-Feb-14 11:23 219 5 gusting 10 16.7
2016-Feb-14 11:13 328 2 gusting 8 16.7
2016-Feb-14 11:03 225 5 gusting 8 16.7
2016-Feb-14 10:53 162 2 gusting 11 16.7
2016-Feb-14 10:43 197 4 gusting 14 16.1
2016-Feb-14 10:33 231 4 gusting 8 16.1
2016-Feb-14 10:23 225 2 gusting 6 16.1
2016-Feb-14 10:13 238 2 gusting 8 15.6
2016-Feb-14 10:03 225 5 gusting 8 15.6
2016-Feb-14 09:53 240 2 gusting 6 15.6
2016-Feb-14 09:43 196 2 gusting 6 15.6
2016-Feb-14 09:33 180 2 gusting 6 15.6
2016-Feb-14 09:23 180 2 gusting 6 15.6
2016-Feb-14 09:13 225 2 gusting 7 15.6
2016-Feb-14 09:03 252 3 gusting 6 15.6
2016-Feb-14 08:53 197 4 gusting 7 15.6
2016-Feb-14 08:43 206 2 gusting 6 15.6
2016-Feb-14 08:33 307 2 gusting 7 15.0
2016-Feb-14 08:23 177 4 gusting 8 15.0
2016-Feb-14 08:13 315 1 gusting 5 15.0
2016-Feb-14 08:03 187 2 gusting 7 15.0
2016-Feb-14 07:53 203 2 gusting 6 15.0
2016-Feb-14 07:43 204 2 gusting 8 15.6
2016-Feb-14 07:33 225 3 gusting 8 15.6
2016-Feb-14 07:23 111 2 gusting 11 15.0
2016-Feb-14 07:13 220 1 gusting 5 15.0
2016-Feb-14 07:03 090 4 gusting 7 15.0
2016-Feb-14 06:53 212 2 gusting 6 15.0
2016-Feb-14 06:43 145 3 gusting 6 15.0
2016-Feb-14 06:33 209 2 gusting 6 15.0
2016-Feb-14 06:23 193 4 gusting 11 15.0
2016-Feb-14 06:13 223 3 gusting 6 15.0
2016-Feb-14 06:03 312 2 gusting 5 15.0
2016-Feb-14 05:53 186 2 gusting 6 15.0
2016-Feb-14 05:43 216 2 gusting 5 15.0
2016-Feb-14 05:33 184 1 gusting 5 15.0
2016-Feb-14 05:23 225 2 gusting 8 15.0
2016-Feb-14 05:13 253 1 gusting 5 15.0
2016-Feb-14 05:03 180 2 gusting 8 15.0
2016-Feb-14 04:53 260 4 gusting 11 15.0
2016-Feb-14 04:43 193 3 gusting 11 15.0
2016-Feb-14 04:33 178 4 gusting 7 15.0
2016-Feb-14 04:23 180 3 gusting 6 15.0
2016-Feb-14 04:13 180 2 gusting 13 15.0
2016-Feb-14 04:03 286 1 gusting 6 15.0
2016-Feb-14 03:53 270 1 gusting 11 15.0
2016-Feb-14 03:43 288 4 gusting 12 15.0
2016-Feb-14 03:33 238 6 gusting 13 15.0
2016-Feb-14 03:23 180 5 gusting 13 15.0
2016-Feb-14 03:13 210 5 gusting 11 15.0
2016-Feb-14 03:03 225 5 gusting 12 15.0
2016-Feb-14 02:53 225 2 gusting 7 14.4
2016-Feb-14 02:43 199 5 gusting 11 14.4
2016-Feb-14 02:33 182 5 gusting 11 14.4
2016-Feb-14 02:23 288 4 gusting 13 14.4
2016-Feb-14 02:13 208 6 gusting 14 14.4
2016-Feb-14 02:03 213 6 gusting 10 14.4
2016-Feb-14 01:53 234 5 gusting 11 15.0
2016-Feb-14 01:43 207 2 gusting 13 15.0
2016-Feb-14 01:33 270 3 gusting 12 15.0
2016-Feb-14 01:23 195 4 gusting 8 15.0
2016-Feb-14 01:13 180 6 gusting 12 15.0
2016-Feb-14 01:03 180 5 gusting 11 15.0
2016-Feb-14 00:53 183 6 gusting 11 15.0
2016-Feb-14 00:43 186 5 gusting 11 15.0
2016-Feb-14 00:33 225 0 gusting 6 15.0
2016-Feb-14 00:23 195 4 gusting 11 15.0
2016-Feb-14 00:13 196 3 gusting 10 15.0
2016-Feb-14 00:03 224 4 gusting 6 15.0
2016-Feb-13 23:53 197 4 gusting 11 15.0
2016-Feb-13 23:43 183 5 gusting 13 15.0
2016-Feb-13 23:33 14.4
2016-Feb-13 23:23 355 3 gusting 10 15.0
2016-Feb-13 23:13 207 2 gusting 6 15.0
2016-Feb-13 23:03 180 2 gusting 6 14.4
2016-Feb-13 22:53 199 2 gusting 10 14.4
2016-Feb-13 22:43 119 6 gusting 10 14.4
2016-Feb-13 22:33 133 3 gusting 6 14.4
2016-Feb-13 22:23 312 3 gusting 6 14.4
2016-Feb-13 22:13 230 2 gusting 7 14.4
2016-Feb-13 22:03 227 4 gusting 6 13.9
2016-Feb-13 21:53 305 2 gusting 6 13.9
2016-Feb-13 21:43 182 2 gusting 5 13.9
2016-Feb-13 21:33 189 2 gusting 6 13.9
2016-Feb-13 21:23 294 2 gusting 6 13.9
2016-Feb-13 21:13 191 2 gusting 8 13.9
2016-Feb-13 21:03 180 4 gusting 8 13.9
2016-Feb-13 20:53 182 3 gusting 7 13.9
2016-Feb-13 20:43 238 5 gusting 8 14.4
2016-Feb-13 20:33 160 4 gusting 8 14.4
2016-Feb-13 20:23 188 3 gusting 6 13.9
2016-Feb-13 20:13 212 3 gusting 6 13.9
2016-Feb-13 20:03 197 2 gusting 6 13.9
2016-Feb-13 19:53 135 2 gusting 2 13.9
2016-Feb-13 19:33 298 0 gusting 2 13.9
2016-Feb-13 19:23 218 1 gusting 6 13.9
2016-Feb-13 19:13 172 0 gusting 5 13.9
2016-Feb-13 19:03 225 1 gusting 5 13.9
2016-Feb-13 18:53 144 2 gusting 5 13.9
2016-Feb-13 18:43 254 3 gusting 6 13.9
2016-Feb-13 18:33 217 2 gusting 6 14.4
2016-Feb-13 18:23 206 2 gusting 5 14.4
2016-Feb-13 18:13 231 2 gusting 6 15.0
2016-Feb-13 18:03 238 15.0
2016-Feb-13 17:53 215 1 gusting 6 15.0
2016-Feb-13 17:43 193 5 gusting 8 15.0
2016-Feb-13 17:33 180 0 gusting 2 15.0
2016-Feb-13 17:23 170 1 gusting 5 15.0
2016-Feb-13 17:13 134 1 gusting 5 15.0
2016-Feb-13 17:03 180 2 gusting 8 15.6
2016-Feb-13 16:53 197 3 gusting 6 15.0
2016-Feb-13 16:43 284 0 gusting 8 15.0
2016-Feb-13 16:33 225 2 gusting 5 15.0
2016-Feb-13 16:23 236 1 gusting 6 15.6
2016-Feb-13 16:13 156 4 gusting 10 15.6
2016-Feb-13 16:03 186 4 gusting 10 15.6
2016-Feb-13 15:53 306 1 gusting 8 15.6
2016-Feb-13 15:43 180 2 gusting 11 15.6
2016-Feb-13 15:33 194 6 gusting 11 16.1
2016-Feb-13 15:23 225 4 gusting 8 16.1
2016-Feb-13 15:13 180 4 gusting 10 15.6
2016-Feb-13 15:03 202 6 gusting 11 16.1
2016-Feb-13 14:53 002 5 gusting 13 16.1
2016-Feb-13 14:43 225 6 gusting 11 16.1
2016-Feb-13 14:33 212 5 gusting 13 16.1
2016-Feb-13 14:23 226 4 gusting 6 16.1
2016-Feb-13 14:13 206 2 gusting 6 16.1
2016-Feb-13 14:03 225 2 gusting 8 16.1
2016-Feb-13 13:53 219 3 gusting 6 16.1
2016-Feb-13 13:43 222 1 gusting 7 16.1
2016-Feb-13 13:33 218 5 gusting 7 16.1
2016-Feb-13 13:23 168 4 gusting 6 16.1
2016-Feb-13 13:13 230 2 gusting 6 16.1
2016-Feb-13 13:03 180 4 gusting 7 16.1
2016-Feb-13 12:53 180 3 gusting 6 16.1
2016-Feb-13 12:43 126 3 gusting 6 16.1
2016-Feb-13 12:33 200 4 gusting 10 16.1
2016-Feb-13 12:23 161 4 gusting 8 16.1
2016-Feb-13 12:13 225 2 gusting 6 16.1
2016-Feb-13 12:03 225 4 gusting 6 16.1
2016-Feb-13 11:53 146 2 gusting 6 15.6
2016-Feb-13 11:43 148 1 gusting 6 16.1
2016-Feb-13 11:33 225 4 gusting 11 16.1
2016-Feb-13 11:23 239 3 gusting 17 16.1
2016-Feb-13 11:13 180 5 gusting 11 16.1
2016-Feb-13 11:03 045 6 gusting 10 16.7
2016-Feb-13 10:53 165 2 gusting 12 16.1
2016-Feb-13 10:43 191 4 gusting 12 16.1
2016-Feb-13 10:33 282 4 gusting 11 16.1
2016-Feb-13 10:23 315 2 gusting 14 15.6
2016-Feb-13 10:13 164 2 gusting 7 15.6
2016-Feb-13 10:03 140 2 gusting 5 15.6
2016-Feb-13 09:53 135 0 gusting 5 15.6
2016-Feb-13 09:43 045 15.6
2016-Feb-13 09:33 189 2 gusting 14 15.6
2016-Feb-13 09:23 135 2 gusting 11 15.6
2016-Feb-13 09:13 239 6 gusting 13 15.0
2016-Feb-13 09:03 045 6 gusting 13 15.0
2016-Feb-13 08:53 181 6 gusting 19 15.0
2016-Feb-13 08:43 301 6 gusting 18 15.0
2016-Feb-13 08:33 250 7 gusting 19 14.4
2016-Feb-13 08:23 264 8 gusting 22 14.4
2016-Feb-13 08:13 270 9 gusting 20 14.4
2016-Feb-13 08:03 180 8 gusting 20 14.4
2016-Feb-13 07:53 225 9 gusting 20 13.9
2016-Feb-13 07:43 183 11 gusting 21 13.9
2016-Feb-13 07:33 292 10 gusting 22 13.9
2016-Feb-13 07:23 202 11 gusting 19 13.9
2016-Feb-13 07:13 225 8 gusting 17 13.9
2016-Feb-13 07:03 180 7 gusting 13 14.4
2016-Feb-13 06:53 201 7 gusting 26 15.0
2016-Feb-13 06:43 201 8 gusting 19 15.6
2016-Feb-13 06:33 180 10 gusting 21 15.0
2016-Feb-13 06:23 156 6 gusting 21 14.4
2016-Feb-13 06:13 184 8 gusting 22 14.4
2016-Feb-13 06:03 225 8 gusting 21 14.4
2016-Feb-13 05:53 225 7 gusting 17 14.4
2016-Feb-13 05:43 257 8 gusting 21 14.4
2016-Feb-13 05:33 172 11 gusting 27 15.0
2016-Feb-13 05:23 232 13 gusting 27 14.4
2016-Feb-13 05:13 196 8 gusting 17 14.4
2016-Feb-13 05:03 292 8 gusting 17 13.9
2016-Feb-13 04:53 219 7 gusting 14 13.3
2016-Feb-13 04:43 202 6 gusting 17 13.9
2016-Feb-13 04:33 193 5 gusting 14 13.3
2016-Feb-13 04:23 208 3 gusting 11 13.3
2016-Feb-13 04:13 248 5 gusting 12 13.3
2016-Feb-13 04:03 168 4 gusting 13 13.9
2016-Feb-13 03:53 015 5 gusting 13 13.9
2016-Feb-13 03:43 138 2 gusting 17 13.9
2016-Feb-13 03:33 248 4 gusting 18 14.4
2016-Feb-13 03:23 170 6 gusting 13 14.4
2016-Feb-13 03:13 229 5 gusting 12 14.4
2016-Feb-13 03:03 090 7 gusting 12 14.4
2016-Feb-13 02:53 135 4 gusting 19 14.4
2016-Feb-13 02:43 172 7 gusting 14 14.4
2016-Feb-13 02:33 180 4 gusting 10 15.0
2016-Feb-13 02:23 225 4 gusting 11 15.0
2016-Feb-13 02:13 225 3 gusting 13 15.0
2016-Feb-13 02:03 179 6 gusting 12 15.0
2016-Feb-13 01:53 127 4 gusting 10 15.0
2016-Feb-13 01:43 147 4 gusting 13 15.0
2016-Feb-13 01:33 173 7 gusting 15 15.0
2016-Feb-13 01:23 193 5 gusting 12 15.0
2016-Feb-13 01:13 150 2 gusting 6 15.0
2016-Feb-13 01:03 180 2 gusting 18 15.0
2016-Feb-13 00:53 171 6 gusting 13 15.0
2016-Feb-13 00:43 225 4 gusting 14 14.4
2016-Feb-13 00:33 141 4 gusting 12 14.4
2016-Feb-13 00:23 173 4 gusting 11 14.4
2016-Feb-13 00:13 163 5 gusting 14 13.9
2016-Feb-13 00:03 165 5 gusting 13 13.9
2016-Feb-12 23:53 171 6 gusting 18 13.9
2016-Feb-12 23:43 260 5 gusting 13 13.9
2016-Feb-12 23:33 135 6 gusting 17 14.4
2016-Feb-12 23:23 167 3 gusting 12 14.4
2016-Feb-12 23:13 095 6 gusting 13 14.4
2016-Feb-12 23:03 135 5 gusting 11 13.9